Back to catalog

STARLINK-4580

AliveCommunicationsVLEO
NORAD 53579·PAYLOAD·🇺🇸 United States

Launched Aug 19, 2022 from Cape Canaveral Space Force Station

Loading…

Next Passes (next 24 hours)

TLE

FreshSource: CelesTrak SupGP

Epoch: Sep 14, 2026, 13:59 UTC

1 53579C 22101BE  26257.58312500 -.00036022  00000+0 -10645-2 0  2570
2 53579  53.1559 271.4777 0001063  86.3974 209.4640 15.34403153    16

Track STARLINK-4580 in real time with AllMySat

Download on the App Store